Location: Bli��� Lhota
(48.7570°N, 14.0120°E)
Time: 09:28:36
(UTC+00:00)

Cosmos 1766 - Pass Details

Date: 18 September 2020
Orbit: 521 x 544 km, 82.5° (Epoch: 27 October)

Event Time Altitude Azimuth Distance (km) Brightness Sun altitude
Exits shadow 19:34:14 40° 23° (NNE) 805 4.1 -23.4°
Drops below altitude 10° 19:36:51 10° 13° (NNE) 1,803 6.2 -23.7°
Sets 19:39:02 0° 12° (NNE) 2,703 7.1 -24.0°
